Hourly Data Report for July 15, 2021

RANKIN INLET A
NUNAVUT
Current Station Operator: NAVCAN

62°48'38.000" N
92°06'53.000" W
32.30 m
2303405
71083
YRT

Download Data

Hourly Data (July 2021)
Hourly Data Report for July 15, 2021
TIME
LST
Temp Definition
°C
Dew Point Definition
°C
Rel Hum Definition
%
Precip. Amount Definition
mm

Wind Dir Definition
10's deg

Wind Spd Definition
km/h
Visibility Definition
km
Stn Press Definition
kPa
Hmdx Definition


Wind Chill Definition


Weather Definition


00:00 12.3 7.3 71   20 22 24.1 100.02     Mainly Clear
01:00 11.1 6.8 74   20 17 24.1 99.97     LegendNANA
02:00 10.6 6.4 75   19 23 24.1 99.92     LegendNANA
03:00 10.0 6.5 78   18 25 24.1 99.87     Mainly Clear
04:00 9.8 6.8 81   19 17 24.1 99.83     LegendNANA
05:00 10.1 7.2 82   18 15 24.1 99.77     LegendNANA
06:00 10.3 7.2 81   16 15 24.1 99.72     Mostly Cloudy
07:00 11.2 7.6 78   19 17 24.1 99.69     LegendNANA
08:00 11.6 7.5 76   15 19 24.1 99.61     LegendNANA
09:00 11.8 8.0 77   17 26 24.1 99.52     Cloudy
10:00 12.5 8.6 77   18 5 9.7 99.56     Smoke
11:00 13.2 8.6 74   15 10 9.7 99.58     Smoke
12:00 13.4 8.6 72   15 21 9.7 99.54     Smoke
13:00 13.0 8.6 74   16 18 9.7 99.50     Smoke
14:00 12.3 9.2 81   15 14 9.7 99.47     Rain Showers,Smoke
15:00 13.0 9.8 80   17 18 16.1 99.53     Mostly Cloudy
16:00 13.2 10.4 83   15 13 9.7 99.51     Smoke
17:00 13.5 9.7 78   16 14 9.7 99.51     Smoke
18:00 12.2 8.7 79   14 10 9.7 99.53     Smoke
19:00 10.6 7.5 81   12 13 9.7 99.53     Smoke
20:00 10.5 7.6 82   11 7 9.7 99.54     Smoke
21:00 9.4 7.6 88   2 10 9.7 99.62     Smoke
22:00 15.1 12.8 86   36 23 24.1 99.61     LegendNANA
23:00 14.5 13.1 91   1 17 24.1 99.62     Rain Showers

Notes on Data Quality.

Legend

  • E = Estimated
  • M = Missing
  • NA = Not Available*
  • [empty] = Indicates an unobserved value
Date modified: